Wind_Speed
30 29 27 26 27 26 25 24 23 23 26 28 28 28 28 28 26 25 25 26 27 28 28 29 29 29 29 28 28 28 29 30 31 33 34 36 40 44
31 30 29 27 26 26 25 24 23 22 24 26 28 29 29 28 27 27 27 27 27 28 28 29 29 28 27 26 25 25 26 27 28 30 32 35 39 42
33 32 30 28 27 26 24 23 22 22 23 25 27 28 28 29 28 28 29 28 28 28 28 28 28 27 27 25 24 23 23 23 24 25 28 33 37 41
35 33 31 29 28 26 24 23 22 21 21 23 25 27 28 29 29 29 29 29 29 28 27 26 26 25 25 24 23 22 22 23 23 24 27 30 34 38
37 35 32 29 28 26 24 22 21 20 19 21 24 26 28 29 29 30 30 29 29 28 26 25 24 23 23 22 22 22 23 24 24 25 26 28 31 35
39 36 33 30 28 26 24 22 20 19 18 20 22 24 26 27 28 29 28 28 27 26 24 23 22 20 20 20 20 21 20 20 20 21 22 24 26 28
42 37 33 30 28 26 24 21 19 18 18 19 21 23 24 25 25 26 26 25 25 24 22 20 19 19 18 17 17 16 16 15 15 15 15 16 18 20
43 38 34 31 28 26 23 21 19 18 18 19 21 22 22 23 23 24 24 26 26 24 21 19 18 18 17 15 14 14 13 13 13 13 14 15 16 17
45 40 36 32 29 26 24 21 19 18 17 18 18 19 20 21 23 23 24 26 25 22 20 17 16 16 14 13 13 13 13 14 14 15 15 16 17 18
45 42 37 34 31 27 24 21 20 18 18 18 17 18 20 22 24 25 25 25 23 20 18 15 14 14 13 13 13 12 12 12 13 13 14 15 16 17
43 40 37 35 32 28 25 22 20 19 18 18 18 19 20 22 25 26 25 24 21 18 16 15 14 13 12 12 11 11 10 10 10 11 12 13 15 17
45 41 38 36 34 31 27 25 22 20 19 19 19 20 21 22 24 24 23 21 18 16 15 14 13 12 11 10 9 9 9 9 9 10 12 13 15 17
44 42 40 38 36 33 30 27 24 21 20 20 19 19 20 20 21 21 21 19 18 16 14 13 12 12 10 9 8 7 7 8 9 11 13 15 17 19
46 44 42 39 37 35 32 29 26 23 21 20 19 19 19 18 18 18 18 16 15 14 13 13 12 11 10 8 8 8 8 9 11 13 14 16 18 19
47 45 43 41 39 36 34 31 27 24 22 20 19 19 19 19 19 18 18 17 16 15 15 14 12 11 10 9 9 10 11 13 14 15 17 18 19 20
46 45 44 42 40 37 35 31 27 24 22 21 20 20 20 20 19 18 18 17 17 16 15 14 12 11 11 11 12 13 15 16 18 19 20 21 22 23
45 45 43 40 37 35 33 29 26 24 22 21 21 21 21 20 20 19 19 18 17 16 15 14 13 13 13 14 16 17 18 20 21 22 23 23 24 25
43 45 42 38 36 33 30 28 26 24 23 23 22 23 22 22 21 20 19 19 17 16 14 13 14 15 16 17 19 20 21 21 22 23 25 26 27 28
41 42 40 37 34 31 28 27 25 25 24 24 23 23 23 22 21 20 19 18 16 15 14 15 15 16 18 20 20 22 22 23 25 26 27 29 30 31
38 39 37 35 32 29 27 26 25 25 25 24 24 24 23 22 21 20 19 17 16 15 15 16 17 18 20 22 23 24 25 26 28 29 30 31 32 33
37 36 35 32 30 27 26 25 25 26 25 25 25 24 22 21 20 19 18 16 16 15 16 17 19 21 23 24 25 27 29 30 30 31 32 32 33 33
34 33 32 30 28 27 26 26 27 26 25 25 24 22 21 20 19 18 17 16 16 16 17 19 21 23 25 26 27 28 30 31 32 32 32 33 32 32
31 31 30 29 28 27 28 27 27 26 24 23 21 20 20 19 18 17 16 16 16 18 19 21 23 25 26 27 28 29 30 29 29 30 30 30 31 32
Wind_Direction
286 293 301 309 315 314 310 302 288 272 260 252 250 252 254 256 258 257 259 261 263 265 265 264 265 265 264 263 263 260 258 258 258 255 252 250 244 239
280 286 294 302 309 312 310 305 294 278 263 254 250 250 251 253 255 256 259 262 264 266 266 266 264 261 261 262 263 262 260 259 259 256 254 249 243 238
274 280 288 296 302 307 309 307 299 284 267 257 251 248 248 251 254 256 260 263 265 266 266 265 263 259 261 263 265 265 265 263 262 260 256 250 243 237
269 275 282 290 296 303 307 307 301 289 271 258 250 247 247 250 253 257 261 263 265 265 264 263 261 259 259 259 264 267 267 267 266 263 259 253 246 241
264 270 276 283 291 298 304 305 302 292 274 257 250 247 248 250 254 258 261 263 264 261 260 259 257 257 257 259 264 266 268 267 264 262 261 258 252 246
259 264 270 278 285 293 299 302 299 292 276 259 252 250 250 252 255 258 259 261 259 257 255 254 252 253 256 258 259 261 263 264 263 262 261 260 257 255
255 259 265 272 280 287 292 296 292 287 276 262 255 253 254 254 255 255 255 254 254 252 248 246 246 250 255 255 254 256 256 257 258 260 261 262 261 261
250 253 259 267 273 278 284 289 287 280 271 261 255 255 254 251 252 252 253 251 249 245 245 246 246 246 246 246 246 250 253 256 260 262 264 265 267 268
247 250 255 261 266 271 276 281 281 275 268 259 254 252 251 253 251 249 248 245 241 241 238 234 234 237 236 241 244 247 250 254 257 260 263 266 268 271
243 245 250 255 260 265 269 272 275 273 264 258 254 252 249 252 247 243 242 241 239 234 228 228 228 230 234 239 244 247 249 252 257 261 266 270 273 276
240 242 246 251 255 259 262 264 266 266 261 257 253 251 248 249 250 245 241 237 228 223 219 218 222 228 232 235 236 240 246 252 259 266 272 277 281 284
238 241 244 249 251 254 257 258 259 259 259 256 253 250 251 254 253 246 238 227 219 215 213 214 217 220 224 226 229 236 244 253 264 273 280 285 289 292
231 234 240 245 246 249 252 253 254 254 252 251 249 246 248 248 244 235 226 217 210 208 208 208 208 208 212 217 224 234 248 263 276 284 290 293 295 297
223 227 231 236 241 243 246 249 250 249 246 245 244 243 240 233 227 221 216 209 203 200 199 200 202 202 206 213 226 243 260 275 283 288 291 294 296 298
217 221 224 229 234 237 240 243 244 243 241 240 237 233 228 224 219 215 207 199 197 196 196 198 202 206 214 226 242 257 267 274 278 282 286 290 293 297
209 215 219 223 227 231 235 237 237 236 235 232 227 224 221 217 213 205 198 197 198 198 200 205 212 221 232 246 257 266 271 274 277 281 286 290 293 297
201 209 214 217 221 225 228 230 230 228 226 222 219 216 212 207 202 198 199 200 202 204 208 216 227 239 251 260 266 271 275 277 279 282 287 290 293 296
198 203 207 211 215 218 221 222 222 220 217 213 211 207 204 201 200 201 204 204 206 211 218 229 241 251 259 267 271 273 276 279 282 285 288 290 292 294
195 198 200 205 209 212 214 214 213 211 209 205 202 200 198 199 201 204 206 209 213 221 231 243 253 261 267 272 274 277 280 282 285 287 288 289 290 292
195 195 196 199 201 204 206 206 204 203 201 198 196 195 196 199 203 207 210 214 221 231 243 253 262 267 270 274 278 281 282 284 286 286 287 288 289 291
192 190 190 192 194 196 196 194 191 190 189 188 190 193 197 202 207 211 216 222 231 241 253 262 270 275 278 281 282 285 286 287 286 285 285 286 289 291
185 185 185 186 187 187 186 184 182 182 183 185 190 196 201 207 212 217 224 232 241 251 261 269 276 280 283 285 285 286 286 286 286 285 285 286 288 290
177 179 181 182 183 181 180 179 180 182 185 188 195 201 206 211 217 224 233 242 252 261 268 275 280 284 286 286 288 289 289 287 285 283 283 283 285 288
Height
5768 5767 5765 5762 5758 5755 5752 5750 5749 5749 5751 5753 5755 5758 5761 5764 5766 5769 5771 5773 5774 5776 5777 5778 5780 5781 5783 5784 5786 5788 5789 5791 5793 5795 5797 5799 5803 5807
5761 5760 5758 5755 5753 5749 5746 5744 5743 5743 5744 5746 5749 5751 5754 5757 5759 5762 5764 5766 5767 5768 5770 5771 5772 5774 5776 5777 5779 5780 5782 5783 5785 5786 5788 5791 5794 5798
5753 5752 5750 5748 5746 5743 5741 5738 5737 5736 5737 5738 5741 5744 5746 5749 5752 5754 5756 5758 5760 5761 5763 5764 5765 5767 5769 5771 5772 5773 5775 5776 5777 5778 5780 5783 5786 5789
5744 5744 5743 5741 5739 5737 5735 5732 5730 5729 5730 5731 5733 5736 5738 5741 5744 5746 5748 5750 5752 5754 5755 5757 5759 5760 5762 5764 5765 5766 5768 5769 5770 5771 5773 5776 5778 5781
5735 5735 5735 5734 5732 5730 5728 5726 5724 5723 5723 5724 5726 5728 5730 5733 5736 5738 5740 5742 5744 5746 5748 5750 5752 5754 5755 5757 5758 5760 5761 5762 5763 5765 5767 5769 5771 5773
5725 5726 5726 5725 5725 5723 5721 5719 5718 5717 5718 5719 5720 5722 5724 5726 5729 5731 5733 5735 5737 5739 5742 5744 5746 5748 5749 5751 5752 5753 5754 5756 5757 5759 5761 5762 5765 5767
5714 5716 5717 5717 5716 5715 5714 5713 5712 5712 5713 5714 5715 5717 5718 5720 5722 5724 5726 5729 5731 5733 5736 5738 5740 5742 5744 5745 5747 5748 5750 5751 5753 5754 5756 5757 5759 5761
5702 5705 5707 5708 5708 5708 5707 5707 5707 5707 5708 5709 5710 5711 5713 5715 5717 5719 5721 5723 5725 5728 5731 5734 5735 5737 5739 5741 5743 5745 5746 5748 5749 5751 5752 5754 5755 5756
5689 5693 5696 5698 5699 5700 5700 5700 5701 5701 5703 5704 5705 5706 5708 5710 5712 5713 5715 5718 5720 5723 5726 5728 5731 5733 5735 5737 5739 5741 5742 5744 5745 5747 5748 5749 5750 5751
5675 5680 5685 5688 5690 5692 5693 5694 5695 5696 5697 5698 5700 5701 5703 5705 5707 5709 5711 5713 5716 5718 5721 5724 5727 5729 5732 5734 5735 5737 5739 5740 5741 5742 5743 5744 5745 5745
5661 5667 5673 5678 5681 5683 5685 5687 5688 5690 5691 5693 5695 5697 5698 5700 5702 5704 5706 5709 5711 5713 5717 5720 5723 5726 5728 5730 5732 5733 5734 5736 5737 5738 5738 5739 5740 5740
5647 5655 5662 5667 5672 5675 5677 5680 5682 5684 5686 5688 5690 5692 5694 5696 5698 5701 5703 5705 5707 5710 5714 5717 5720 5723 5725 5727 5728 5729 5731 5732 5733 5733 5734 5734 5734 5734
5633 5642 5650 5656 5662 5666 5669 5672 5675 5677 5679 5682 5684 5687 5689 5692 5694 5696 5698 5701 5703 5707 5711 5714 5717 5720 5722 5723 5725 5726 5727 5728 5728 5729 5729 5729 5728 5728
5620 5629 5637 5645 5652 5657 5661 5664 5667 5670 5673 5676 5679 5682 5685 5687 5690 5692 5695 5698 5701 5704 5708 5711 5714 5716 5718 5720 5722 5723 5723 5724 5724 5724 5724 5723 5723 5721
5607 5617 5626 5634 5642 5648 5653 5657 5660 5663 5667 5670 5674 5677 5680 5683 5685 5689 5692 5696 5699 5702 5705 5708 5711 5713 5715 5717 5718 5719 5720 5720 5720 5720 5719 5718 5717 5715
5595 5605 5615 5624 5632 5639 5645 5649 5653 5657 5661 5665 5669 5672 5675 5679 5683 5686 5690 5693 5697 5700 5703 5705 5707 5709 5711 5712 5714 5714 5715 5715 5715 5714 5713 5712 5710 5708
5585 5595 5606 5616 5624 5631 5637 5642 5647 5651 5655 5660 5664 5668 5672 5676 5680 5683 5687 5691 5694 5697 5700 5702 5704 5705 5707 5708 5708 5709 5709 5709 5708 5707 5706 5704 5703 5700
5577 5587 5598 5608 5617 5624 5630 5636 5640 5645 5650 5655 5659 5664 5668 5673 5677 5681 5685 5688 5691 5694 5696 5698 5700 5701 5702 5702 5703 5703 5702 5702 5701 5700 5698 5696 5694 5692
5572 5582 5593 5602 5611 5618 5624 5630 5635 5640 5645 5650 5655 5660 5665 5670 5674 5678 5682 5685 5688 5690 5692 5694 5695 5696 5697 5697 5696 5696 5695 5695 5693 5692 5690 5688 5686 5683
5570 5580 5589 5598 5606 5614 5620 5625 5630 5636 5641 5646 5652 5658 5663 5667 5672 5675 5678 5681 5683 5686 5687 5689 5689 5690 5691 5691 5690 5689 5688 5687 5686 5684 5682 5679 5677 5675
5569 5578 5586 5595 5603 5610 5616 5622 5627 5633 5639 5644 5650 5655 5660 5664 5668 5672 5674 5677 5679 5681 5682 5683 5683 5683 5683 5683 5683 5681 5680 5678 5677 5675 5673 5671 5669 5666
5570 5578 5586 5593 5601 5608 5614 5620 5626 5631 5637 5642 5648 5653 5657 5661 5665 5668 5670 5672 5674 5676 5676 5677 5677 5676 5676 5675 5675 5674 5672 5670 5668 5666 5664 5662 5660 5658
5571 5578 5586 5593 5600 5607 5614 5619 5625 5631 5636 5641 5646 5650 5654 5658 5661 5664 5666 5667 5669 5670 5670 5670 5670 5669 5668 5667 5666 5665 5663 5662 5660 5658 5657 5654 5652 5649